When you browse on this site, cookies collect data to enhance your experience and personalize the content and advertising you see.
Visit our Privacy Policy to learn more. By continuing to use the site, you agree to this use of cookies and data.
  • In France
  • List of Countries
  • For 7 days
  • Water Temperature
  • Satellite Maps
  • Weather Map
  • Weather Widgets
  • user-avatar
    Login

    Hourly Weather Slobodka

    Today, 21 May, Tuesday

    Time Temperature Precipitation Wind Pressure Humidity
    00:00 +14°C° 0 mm 2 mps 749 mmHg 81%
    01:00 +14°C° 0 mm 2 mps 749 mmHg 83%
    02:00 +13°C° 0 mm 2 mps 750 mmHg 86%
    03:00 +13°C° 0 mm 2 mps 750 mmHg 85%
    04:00 +13°C° 0 mm 2 mps 750 mmHg 85%
    05:00 +13°C° 0 mm 2 mps 750 mmHg 85%
    06:00 +14°C° 0 mm 3 mps 750 mmHg 79%
    07:00 +17°C° 0 mm 3 mps 750 mmHg 73%
    08:00 +19°C° 0 mm 4 mps 750 mmHg 67%
    09:00 +20°C° 0 mm 5 mps 749 mmHg 64%
    10:00 +21°C° 0 mm 5 mps 749 mmHg 61%
    11:00 +21°C° 0 mm 5 mps 749 mmHg 58%
    12:00 +22°C° 0 mm 5 mps 749 mmHg 57%
    13:00 +22°C° 0 mm 5 mps 748 mmHg 56%
    14:00 +22°C° 0 mm 6 mps 748 mmHg 55%
    15:00 +22°C° 0 mm 5 mps 748 mmHg 59%
    16:00 +21°C° 0 mm 4 mps 747 mmHg 62%
    17:00 +21°C° 0 mm 4 mps 747 mmHg 66%
    18:00 +19°C° 0 mm 4 mps 747 mmHg 70%
    19:00 +18°C° 0 mm 3 mps 746 mmHg 74%
    20:00 +16°C° 0 mm 3 mps 746 mmHg 78%
    21:00 +16°C° 0 mm 3 mps 746 mmHg 79%
    22:00 +14°C° 0 mm 3 mps 746 mmHg 80%
    23:00 +14°C° 0 mm 3 mps 746 mmHg 81%

    Tomorrow, 22 May, Wednesday

    Time Temperature Precipitation Wind Pressure Humidity
    00:00 +14°C° 0.4 mm 3 mps 746 mmHg 84%
    01:00 +14°C° 0.4 mm 3 mps 745 mmHg 88%
    02:00 +14°C° 0.4 mm 3 mps 745 mmHg 92%
    03:00 +14°C° 0.6 mm 4 mps 745 mmHg 92%
    04:00 +14°C° 0.6 mm 4 mps 745 mmHg 92%
    05:00 +15°C° 0.6 mm 5 mps 744 mmHg 93%
    06:00 +16°C° 0 mm 5 mps 744 mmHg 89%
    07:00 +17°C° 0 mm 5 mps 744 mmHg 86%
    08:00 +17°C° 0 mm 5 mps 744 mmHg 82%
    09:00 +19°C° 0.1 mm 5 mps 744 mmHg 80%
    10:00 +20°C° 0.1 mm 4 mps 744 mmHg 77%
    11:00 +21°C° 0.1 mm 4 mps 743 mmHg 75%
    12:00 +22°C° 0.6 mm 4 mps 743 mmHg 73%
    13:00 +22°C° 0.6 mm 4 mps 743 mmHg 71%
    14:00 +23°C° 0.6 mm 4 mps 743 mmHg 69%
    15:00 +22°C° 0.6 mm 3 mps 742 mmHg 71%
    16:00 +22°C° 0.6 mm 3 mps 742 mmHg 73%
    17:00 +22°C° 0.6 mm 3 mps 742 mmHg 75%
    18:00 +20°C° 0.1 mm 2 mps 742 mmHg 79%
    19:00 +19°C° 0.1 mm 2 mps 742 mmHg 84%
    20:00 +18°C° 0.1 mm 2 mps 741 mmHg 89%
    21:00 +17°C° 0 mm 2 mps 741 mmHg 90%
    22:00 +16°C° 0 mm 2 mps 741 mmHg 92%
    23:00 +16°C° 0 mm 3 mps 741 mmHg 93%

    Day after tomorrow, 23 May, Thursday

    Time Temperature Precipitation Wind Pressure Humidity
    00:00 +15°C° 0.1 mm 2 mps 741 mmHg 94%
    01:00 +15°C° 0.1 mm 2 mps 741 mmHg 94%
    02:00 +15°C° 0.1 mm 2 mps 741 mmHg 94%
    03:00 +15°C° 0 mm 2 mps 741 mmHg 94%
    04:00 +15°C° 0 mm 2 mps 741 mmHg 94%
    05:00 +15°C° 0 mm 2 mps 741 mmHg 94%
    06:00 +17°C° 0 mm 2 mps 741 mmHg 89%
    07:00 +18°C° 0 mm 2 mps 741 mmHg 84%
    08:00 +20°C° 0 mm 2 mps 741 mmHg 79%
    09:00 +21°C° 0.2 mm 2 mps 741 mmHg 73%
    10:00 +23°C° 0.2 mm 2 mps 741 mmHg 67%
    11:00 +24°C° 0.2 mm 2 mps 741 mmHg 61%
    12:00 +25°C° 0.8 mm 3 mps 741 mmHg 63%
    13:00 +25°C° 0.8 mm 3 mps 741 mmHg 64%
    14:00 +25°C° 0.8 mm 4 mps 741 mmHg 66%
    15:00 +24°C° 0.3 mm 3 mps 740 mmHg 68%
    16:00 +24°C° 0.3 mm 3 mps 740 mmHg 70%
    17:00 +24°C° 0.3 mm 3 mps 740 mmHg 73%
    18:00 +21°C° 0.1 mm 3 mps 740 mmHg 77%
    19:00 +20°C° 0.1 mm 2 mps 740 mmHg 80%
    20:00 +18°C° 0.1 mm 2 mps 740 mmHg 84%
    21:00 +18°C° 0 mm 2 mps 740 mmHg 85%
    22:00 +17°C° 0 mm 2 mps 741 mmHg 86%
    23:00 +16°C° 0 mm 2 mps 741 mmHg 86%

    24 May, Friday

    Time Temperature Precipitation Wind Pressure Humidity
    00:00 +16°C° 0 mm 2 mps 741 mmHg 88%
    01:00 +16°C° 0 mm 2 mps 741 mmHg 89%
    02:00 +15°C° 0 mm 2 mps 741 mmHg 90%
    03:00 +16°C° 0 mm 1 mps 741 mmHg 89%
    04:00 +16°C° 0 mm 1 mps 741 mmHg 88%
    05:00 +16°C° 0 mm 1 mps 741 mmHg 87%
    06:00 +19°C° 0 mm 1 mps 741 mmHg 82%
    07:00 +19°C° 0 mm 2 mps 741 mmHg 78%
    08:00 +21°C° 0 mm 2 mps 741 mmHg 73%
    09:00 +23°C° 0.2 mm 2 mps 741 mmHg 70%
    10:00 +24°C° 0.2 mm 3 mps 741 mmHg 66%
    11:00 +25°C° 0.2 mm 3 mps 741 mmHg 62%
    12:00 +25°C° 0.3 mm 3 mps 741 mmHg 62%
    13:00 +25°C° 0.3 mm 3 mps 741 mmHg 62%
    14:00 +25°C° 0.3 mm 3 mps 740 mmHg 61%
    15:00 +25°C° 0.6 mm 3 mps 740 mmHg 66%
    16:00 +24°C° 0.6 mm 3 mps 740 mmHg 71%
    17:00 +24°C° 0.6 mm 2 mps 740 mmHg 76%
    18:00 +21°C° 0 mm 2 mps 740 mmHg 79%
    19:00 +20°C° 0 mm 2 mps 740 mmHg 83%
    20:00 +18°C° 0 mm 2 mps 740 mmHg 86%
    21:00 +18°C° 0 mm 2 mps 740 mmHg 88%
    22:00 +17°C° 0 mm 2 mps 739 mmHg 90%
    23:00 +16°C° 0 mm 2 mps 739 mmHg 92%

    25 May, Saturday

    Time Temperature Precipitation Wind Pressure Humidity
    00:00 +16°C° 0 mm 2 mps 739 mmHg 93%
    01:00 +16°C° 0 mm 2 mps 739 mmHg 93%
    02:00 +15°C° 0 mm 2 mps 739 mmHg 94%
    03:00 +16°C° 1.1 mm 2 mps 739 mmHg 94%
    04:00 +16°C° 1.1 mm 2 mps 739 mmHg 94%
    05:00 +16°C° 1.1 mm 3 mps 739 mmHg 94%
    06:00 +17°C° 0.2 mm 3 mps 739 mmHg 91%
    07:00 +18°C° 0.2 mm 3 mps 739 mmHg 89%
    08:00 +19°C° 0.2 mm 4 mps 739 mmHg 86%
    09:00 +20°C° 0.1 mm 4 mps 739 mmHg 80%
    10:00 +21°C° 0.1 mm 4 mps 739 mmHg 73%
    11:00 +23°C° 0.1 mm 4 mps 738 mmHg 67%
    12:00 +22°C° 0.8 mm 4 mps 738 mmHg 68%
    13:00 +22°C° 0.8 mm 4 mps 738 mmHg 69%
    14:00 +22°C° 0.8 mm 4 mps 738 mmHg 70%
    15:00 +22°C° 0.8 mm 3 mps 737 mmHg 71%
    16:00 +22°C° 0.8 mm 3 mps 737 mmHg 73%
    17:00 +21°C° 0.8 mm 2 mps 737 mmHg 75%
    18:00 +20°C° 0.1 mm 2 mps 737 mmHg 80%
    19:00 +19°C° 0.1 mm 2 mps 737 mmHg 85%
    20:00 +17°C° 0.1 mm 2 mps 737 mmHg 90%
    21:00 +17°C° 0.2 mm 2 mps 736 mmHg 91%
    22:00 +16°C° 0.2 mm 2 mps 736 mmHg 93%
    23:00 +16°C° 0.2 mm 2 mps 736 mmHg 95%

    26 May, Sunday

    Time Temperature Precipitation Wind Pressure Humidity
    00:00 +15°C° 0 mm 2 mps 736 mmHg 95%
    01:00 +15°C° 0 mm 2 mps 736 mmHg 96%
    02:00 +14°C° 0 mm 2 mps 736 mmHg 96%
    03:00 +14°C° 0 mm 2 mps 736 mmHg 96%
    04:00 +14°C° 0 mm 3 mps 736 mmHg 96%
    05:00 +14°C° 0 mm 3 mps 737 mmHg 96%
    06:00 +14°C° 0 mm 3 mps 737 mmHg 94%
    07:00 +16°C° 0 mm 3 mps 737 mmHg 91%
    08:00 +17°C° 0 mm 4 mps 737 mmHg 89%
    09:00 +18°C° 0 mm 4 mps 737 mmHg 80%
    10:00 +20°C° 0 mm 5 mps 737 mmHg 72%
    11:00 +21°C° 0 mm 5 mps 738 mmHg 64%
    12:00 +22°C° 0 mm 5 mps 738 mmHg 62%
    13:00 +22°C° 0 mm 5 mps 738 mmHg 60%
    14:00 +23°C° 0 mm 5 mps 738 mmHg 58%
    15:00 +22°C° 0.1 mm 5 mps 738 mmHg 63%
    16:00 +22°C° 0.1 mm 4 mps 739 mmHg 68%
    17:00 +21°C° 0.1 mm 4 mps 739 mmHg 72%
    18:00 +20°C° 0.1 mm 4 mps 739 mmHg 78%
    19:00 +18°C° 0.1 mm 3 mps 739 mmHg 85%
    20:00 +16°C° 0.1 mm 3 mps 740 mmHg 91%
    21:00 +16°C° 0 mm 3 mps 740 mmHg 92%
    22:00 +15°C° 0 mm 2 mps 740 mmHg 92%
    23:00 +14°C° 0 mm 2 mps 741 mmHg 93%
    Show more